When you browse on this site, cookies collect data to enhance your experience and personalize the content and advertising you see.
Visit our Privacy Policy to learn more. By continuing to use the site, you agree to this use of cookies and data.
  • In Hungary
  • List of Countries
  • For 7 days
  • Water Temperature
  • Satellite Maps
  • Weather Map
  • News
  • Weather Widgets
  • user-avatar
    Login

    Hourly Weather Mingora

    Today, 19 January, Saturday

    Time Temperature Precipitation Wind Pressure Humidity
    00:00 +8°C° 0 mm 3 mps 677 mmHg 42%
    01:00 +8°C° 0 mm 3 mps 677 mmHg 41%
    02:00 +8°C° 0 mm 3 mps 677 mmHg 41%
    03:00 +8°C° 0 mm 3 mps 677 mmHg 42%
    04:00 +8°C° 0 mm 3 mps 677 mmHg 42%
    05:00 +8°C° 0 mm 3 mps 677 mmHg 43%
    06:00 +8°C° 0 mm 3 mps 677 mmHg 43%
    07:00 +8°C° 0 mm 3 mps 677 mmHg 43%
    08:00 +8°C° 0 mm 3 mps 678 mmHg 43%
    09:00 +10°C° 0 mm 2 mps 678 mmHg 39%
    10:00 +13°C° 0 mm 2 mps 678 mmHg 34%
    11:00 +15°C° 0 mm 1 mps 679 mmHg 30%
    12:00 +16°C° 0 mm 1 mps 679 mmHg 30%
    13:00 +16°C° 0 mm 1 mps 678 mmHg 30%
    14:00 +18°C° 0 mm 1 mps 678 mmHg 30%
    15:00 +16°C° 0 mm 1 mps 678 mmHg 33%
    16:00 +15°C° 0 mm 1 mps 678 mmHg 36%
    17:00 +14°C° 0 mm 1 mps 678 mmHg 40%
    18:00 +14°C° 0 mm 2 mps 678 mmHg 40%
    19:00 +13°C° 0 mm 2 mps 678 mmHg 41%
    20:00 +12°C° 0 mm 2 mps 678 mmHg 41%
    21:00 +11°C° 0.5 mm 3 mps 678 mmHg 47%
    22:00 +10°C° 0.5 mm 3 mps 678 mmHg 52%
    23:00 +9°C° 0.5 mm 3 mps 678 mmHg 57%

    Tomorrow, 20 January, Sunday

    Time Temperature Precipitation Wind Pressure Humidity
    00:00 +9°C° 0.2 mm 3 mps 678 mmHg 59%
    01:00 +9°C° 0.2 mm 3 mps 678 mmHg 61%
    02:00 +9°C° 0.2 mm 3 mps 678 mmHg 62%
    03:00 +9°C° 0.1 mm 3 mps 677 mmHg 62%
    04:00 +8°C° 0.1 mm 3 mps 677 mmHg 62%
    05:00 +8°C° 0.1 mm 3 mps 677 mmHg 61%
    06:00 +9°C° 0 mm 3 mps 677 mmHg 60%
    07:00 +9°C° 0 mm 3 mps 677 mmHg 59%
    08:00 +9°C° 0 mm 3 mps 677 mmHg 58%
    09:00 +10°C° 0.2 mm 3 mps 678 mmHg 57%
    10:00 +10°C° 0.2 mm 2 mps 678 mmHg 56%
    11:00 +12°C° 0.2 mm 2 mps 678 mmHg 55%
    12:00 +10°C° 0.9 mm 2 mps 677 mmHg 61%
    13:00 +10°C° 0.9 mm 2 mps 677 mmHg 66%
    14:00 +9°C° 0.9 mm 2 mps 676 mmHg 72%
    15:00 +9°C° 1 mm 2 mps 676 mmHg 74%
    16:00 +8°C° 1 mm 2 mps 676 mmHg 76%
    17:00 +8°C° 1 mm 2 mps 676 mmHg 78%
    18:00 +8°C° 0.6 mm 2 mps 676 mmHg 77%
    19:00 +8°C° 0.6 mm 2 mps 676 mmHg 77%
    20:00 +7°C° 0.6 mm 2 mps 676 mmHg 76%
    21:00 +7°C° 0.9 mm 2 mps 676 mmHg 77%
    22:00 +7°C° 0.9 mm 2 mps 676 mmHg 77%
    23:00 +7°C° 0.9 mm 3 mps 675 mmHg 78%

    Day after tomorrow, 21 January, Monday

    Time Temperature Precipitation Wind Pressure Humidity
    00:00 +7°C° 1.6 mm 3 mps 675 mmHg 79%
    01:00 +5°C° 1.6 mm 3 mps 675 mmHg 80%
    02:00 +5°C° 1.6 mm 3 mps 675 mmHg 82%
    03:00 +5°C° 0.7 mm 3 mps 675 mmHg 81%
    04:00 +6°C° 0.7 mm 2 mps 674 mmHg 80%
    05:00 +6°C° 0.7 mm 2 mps 674 mmHg 80%
    06:00 +6°C° 0.6 mm 2 mps 674 mmHg 79%
    07:00 +6°C° 0.6 mm 2 mps 674 mmHg 78%
    08:00 +6°C° 0.6 mm 2 mps 675 mmHg 77%
    09:00 +6°C° 2.1 mm 2 mps 674 mmHg 80%
    10:00 +6°C° 2.1 mm 2 mps 674 mmHg 83%
    11:00 +6°C° 2.1 mm 2 mps 674 mmHg 86%
    12:00 +6°C° 2.7 mm 2 mps 674 mmHg 86%
    13:00 +6°C° 2.7 mm 2 mps 673 mmHg 87%
    14:00 +6°C° 2.7 mm 2 mps 672 mmHg 87%
    15:00 +6°C° 1.7 mm 2 mps 672 mmHg 86%
    16:00 +6°C° 1.7 mm 2 mps 672 mmHg 85%
    17:00 +6°C° 1.7 mm 2 mps 673 mmHg 84%
    18:00 +6°C° 0.6 mm 2 mps 673 mmHg 83%
    19:00 +6°C° 0.6 mm 2 mps 673 mmHg 82%
    20:00 +6°C° 0.6 mm 2 mps 674 mmHg 80%
    21:00 +5°C° 0.1 mm 2 mps 674 mmHg 79%
    22:00 +5°C° 0.1 mm 2 mps 674 mmHg 77%
    23:00 +6°C° 0.1 mm 1 mps 673 mmHg 75%

    22 January, Tuesday

    Time Temperature Precipitation Wind Pressure Humidity
    00:00 +4°C° 0 mm 2 mps 673 mmHg 74%
    01:00 +4°C° 0 mm 2 mps 673 mmHg 73%
    02:00 +4°C° 0 mm 2 mps 672 mmHg 72%
    03:00 +4°C° 0 mm 2 mps 672 mmHg 71%
    04:00 +4°C° 0 mm 2 mps 672 mmHg 71%
    05:00 +4°C° 0 mm 2 mps 672 mmHg 71%
    06:00 +4°C° 0.1 mm 2 mps 672 mmHg 71%
    07:00 +5°C° 0.1 mm 2 mps 672 mmHg 71%
    08:00 +5°C° 0.1 mm 2 mps 673 mmHg 71%
    09:00 +7°C° 0.1 mm 1 mps 672 mmHg 72%
    10:00 +7°C° 0.1 mm 1 mps 672 mmHg 73%
    11:00 +7°C° 0.1 mm 0 mps 672 mmHg 74%
    12:00 +8°C° 0.1 mm 1 mps 672 mmHg 74%
    13:00 +8°C° 0.1 mm 1 mps 672 mmHg 74%
    14:00 +8°C° 0.1 mm 1 mps 671 mmHg 75%
    15:00 +8°C° 0.1 mm 1 mps 672 mmHg 74%
    16:00 +8°C° 0.1 mm 1 mps 672 mmHg 74%
    17:00 +7°C° 0.1 mm 1 mps 672 mmHg 74%
    18:00 +6°C° 0 mm 1 mps 673 mmHg 75%
    19:00 +6°C° 0 mm 1 mps 674 mmHg 75%
    20:00 +5°C° 0 mm 1 mps 675 mmHg 76%
    21:00 +4°C° 0 mm 2 mps 675 mmHg 75%
    22:00 +4°C° 0 mm 2 mps 675 mmHg 74%
    23:00 +3°C° 0 mm 2 mps 675 mmHg 73%

    23 January, Wednesday

    Time Temperature Precipitation Wind Pressure Humidity
    00:00 +3°C° 0.1 mm 2 mps 675 mmHg 73%
    01:00 +3°C° 0.1 mm 2 mps 675 mmHg 73%
    02:00 +3°C° 0.1 mm 2 mps 676 mmHg 73%
    03:00 +3°C° 0.2 mm 2 mps 675 mmHg 74%
    04:00 +3°C° 0.2 mm 2 mps 675 mmHg 75%
    05:00 +3°C° 0.2 mm 2 mps 675 mmHg 77%
    06:00 +3°C° 1.2 mm 2 mps 675 mmHg 79%
    07:00 +3°C° 1.2 mm 2 mps 676 mmHg 82%
    08:00 +3°C° 1.2 mm 2 mps 676 mmHg 84%
    09:00 +3°C° 2.1 mm 2 mps 676 mmHg 87%
    10:00 +3°C° 2.1 mm 2 mps 677 mmHg 89%
    11:00 +4°C° 2.1 mm 2 mps 677 mmHg 92%
    12:00 +4°C° 2.1 mm 2 mps 677 mmHg 92%
    13:00 +4°C° 2.1 mm 2 mps 676 mmHg 93%
    14:00 +5°C° 2.1 mm 1 mps 676 mmHg 94%
    15:00 +3°C° 1.3 mm 2 mps 676 mmHg 93%
    16:00 +3°C° 1.3 mm 2 mps 677 mmHg 92%
    17:00 +3°C° 1.3 mm 2 mps 677 mmHg 92%
    18:00 +3°C° 0.6 mm 2 mps 677 mmHg 90%
    19:00 +3°C° 0.6 mm 2 mps 678 mmHg 89%
    20:00 +3°C° 0.6 mm 2 mps 679 mmHg 88%
    21:00 +3°C° 0.5 mm 2 mps 679 mmHg 87%
    22:00 +2°C° 0.5 mm 3 mps 679 mmHg 86%
    23:00 +2°C° 0.5 mm 3 mps 679 mmHg 85%

    24 January, Thursday

    Time Temperature Precipitation Wind Pressure Humidity
    00:00 +1°C° 0.2 mm 3 mps 679 mmHg 84%
    01:00 +1°C° 0.2 mm 3 mps 679 mmHg 83%
    02:00 +1°C° 0.2 mm 3 mps 679 mmHg 82%
    03:00 +1°C° 0.1 mm 3 mps 678 mmHg 80%
    04:00 0°C° 0.1 mm 3 mps 678 mmHg 77%
    05:00 0°C° 0.1 mm 3 mps 678 mmHg 75%
    06:00 0°C° 0 mm 3 mps 678 mmHg 73%
    07:00 0°C° 0 mm 3 mps 679 mmHg 72%
    08:00 -1°C° 0 mm 3 mps 679 mmHg 70%
    09:00 +1°C° 0 mm 3 mps 679 mmHg 75%
    10:00 +4°C° 0 mm 2 mps 679 mmHg 80%
    11:00 +5°C° 0 mm 2 mps 679 mmHg 86%
    12:00 +6°C° 0 mm 2 mps 679 mmHg 86%
    13:00 +7°C° 0 mm 1 mps 678 mmHg 86%
    14:00 +8°C° 0 mm 1 mps 678 mmHg 86%
    15:00 +6°C° 0 mm 2 mps 678 mmHg 81%
    16:00 +6°C° 0 mm 2 mps 678 mmHg 76%
    17:00 +5°C° 0 mm 2 mps 678 mmHg 72%
    18:00 +3°C° 0 mm 3 mps 678 mmHg 70%
    19:00 +2°C° 0 mm 3 mps 679 mmHg 69%
    20:00 0°C° 0 mm 4 mps 679 mmHg 68%
    21:00 0°C° 0 mm 4 mps 679 mmHg 67%
    22:00 -1°C° 0 mm 4 mps 679 mmHg 67%
    23:00 -1°C° 0 mm 4 mps 679 mmHg 66%
    Show more